Location: Nelson
(41.2830°S, 173.2830°E)
Time: 05:32:15
(UTC+12:00)

Cosmos 1689 Rocket - Pass Details

Date: 14 May 2021
Orbit: 344 x 355 km, 97.5° (Epoch: 17 June)

Event Time Altitude Azimuth Distance (km) Brightness Sun altitude
Rises 18:30:29 0° 25° (NNE) 2,170 5.8 -13.5°
Reaches altitude 10° 18:32:25 10° 31° (NNE) 1,339 4.6 -13.9°
Maximum altitude 18:35:09 46° 105° (ESE) 502 2.2 -14.4°
Drops below altitude 10° 18:37:58 10° 180° (S) 1,371 4.7 -14.9°
Sets 18:39:59 0° 186° (S) 2,232 5.9 -15.3°
